| time (UTC) | temp F | wind direction | speed knots | gust knots | rain 1hr in | rain 24hr in | rain mn in | humidity % | barometer mb |
| 20260510230047 | 59 | 274 | 0.9 | 4.3 | 0.00 | 0.00 | 0.00 | 35 | 1019.3 |
| 20260510224545 | 59 | 292 | 0.0 | 2.6 | 0.00 | 0.00 | 0.00 | 37 | 1019.2 |
| 20260510223044 | 59 | 278 | 0.0 | 3.5 | 0.00 | 0.00 | 0.00 | 35 | 1019.2 |
| 20260510221543 | 58 | 272 | 0.0 | 2.6 | 0.00 | 0.00 | 0.00 | 36 | 1019.2 |
| 20260510220042 | 59 | 282 | 0.0 | 3.5 | 0.00 | 0.00 | 0.00 | 35 | 1019.0 |
| 20260510214551 | 59 | 203 | 0.9 | 3.5 | 0.00 | 0.00 | 0.00 | 33 | 1018.9 |
| 20260510213045 | 59 | 271 | 0.0 | 1.7 | 0.00 | 0.00 | 0.00 | 33 | 1018.7 |
| 20260510211541 | 59 | 259 | 0.0 | 6.1 | 0.00 | 0.00 | 0.00 | 33 | 1018.6 |
| 20260510210040 | 60 | 270 | 0.0 | 4.3 | 0.00 | 0.00 | 0.00 | 34 | 1018.2 |
| 20260510204540 | 60 | 255 | 0.0 | 3.5 | 0.00 | 0.00 | 0.00 | 32 | 1018.2 |
| 20260510203040 | 60 | 7 | 0.0 | 7.0 | 0.00 | 0.00 | 0.00 | 32 | 1018.4 |
| 20260510201538 | 61 | 287 | 0.9 | 5.2 | 0.00 | 0.00 | 0.00 | 31 | 1018.5 |
| 20260510200037 | 59 | 63 | 0.0 | 2.6 | 0.00 | 0.00 | 0.00 | 34 | 1018.8 |
| 20260510194536 | 60 | 78 | 0.0 | 4.3 | 0.00 | 0.00 | 0.00 | 34 | 1018.8 |
| 20260510193036 | 60 | 293 | 0.9 | 6.1 | 0.00 | 0.00 | 0.00 | 30 | 1018.9 |
| 20260510191532 | 60 | 281 | 0.0 | 2.6 | 0.00 | 0.00 | 0.00 | 34 | 1018.9 |
| 20260510190035 | 58 | 273 | 0.0 | 3.5 | 0.00 | 0.00 | 0.00 | 33 | 1019.0 |
| 20260510184528 | 59 | 99 | 0.0 | 2.6 | 0.00 | 0.00 | 0.00 | 31 | 1018.8 |
| 20260510183028 | 58 | 280 | 0.9 | 6.1 | 0.00 | 0.00 | 0.00 | 34 | 1018.8 |
| 20260510181531 | 59 | 265 | 0.9 | 4.3 | 0.00 | 0.00 | 0.00 | 32 | 1018.6 |
| 20260510180026 | 58 | 286 | 0.9 | 3.5 | 0.00 | 0.00 | 0.00 | 36 | 1018.6 |
| 20260510174522 | 57 | 283 | 0.9 | 4.3 | 0.00 | 0.00 | 0.00 | 34 | 1018.5 |
| 20260510173024 | 57 | 245 | 0.9 | 5.2 | 0.00 | 0.00 | 0.00 | 34 | 1018.6 |
| 20260510171523 | 57 | 22 | 0.9 | 4.3 | 0.00 | 0.00 | 0.00 | 36 | 1018.8 |
| 20260510170020 | 56 | 283 | 1.7 | 4.3 | 0.00 | 0.00 | 0.00 | 35 | 1018.9 |
| 20260510164524 | 55 | 105 | 0.0 | 4.3 | 0.00 | 0.00 | 0.00 | 35 | 1018.7 |
| 20260510163016 | 55 | 271 | 0.0 | 2.6 | 0.00 | 0.00 | 0.00 | 36 | 1018.7 |
| 20260510161515 | 55 | 5 | 0.0 | 4.3 | 0.00 | 0.00 | 0.00 | 38 | 1018.8 |
| 20260510160114 | 55 | 70 | 0.0 | 3.5 | 0.00 | 0.00 | 0.00 | 41 | 1018.5 |
| 20260510154512 | 54 | 82 | 0.0 | 1.7 | 0.00 | 0.00 | 0.00 | 41 | 1018.5 |
| 20260510153010 | 53 | 355 | 0.0 | 2.6 | 0.00 | 0.00 | 0.00 | 42 | 1018.3 |
| 20260510151509 | 53 | 288 | 0.9 | 3.5 | 0.00 | 0.00 | 0.00 | 42 | 1018.2 |
| 20260510150008 | 52 | 277 | 0.9 | 4.3 | 0.00 | 0.00 | 0.00 | 42 | 1018.1 |
| 20260510144506 | 52 | 274 | 0.0 | 3.5 | 0.00 | 0.00 | 0.00 | 44 | 1017.9 |
| 20260510143008 | 51 | 294 | 0.0 | 1.7 | 0.00 | 0.00 | 0.00 | 47 | 1017.8 |
| 20260510141504 | 50 | 23 | 0.0 | 2.6 | 0.00 | 0.00 | 0.00 | 46 | 1017.8 |
| 20260510140002 | 49 | 51 | 0.0 | 3.5 | 0.00 | 0.00 | 0.00 | 49 | 1017.8 |
| 20260510134501 | 49 | 338 | 0.0 | 2.6 | 0.00 | 0.00 | 0.00 | 50 | 1017.6 |
| 20260510133101 | 49 | 279 | 0.0 | 0.9 | 0.00 | 0.00 | 0.00 | 52 | 1017.6 |
| 20260510131604 | 48 | 252 | 0.0 | 0.9 | 0.00 | 0.00 | 0.00 | 52 | 1017.4 |
| 20260510130056 | 48 | 252 | 0.0 | 1.7 | 0.00 | 0.00 | 0.00 | 54 | 1017.3 |
| 20260510124603 | 47 | 64 | 0.0 | 0.9 | 0.00 | 0.00 | 0.00 | 57 | 1017.2 |
| 20260510123059 | 46 | 275 | 0.0 | 2.6 | 0.00 | 0.00 | 0.00 | 58 | 1017.1 |
| 20260510121553 | 46 | 244 | 0.0 | 0.9 | 0.00 | 0.00 | 0.00 | 63 | 1017.0 |
| 20260510120050 | 45 | 252 | 0.0 | 0.9 | 0.00 | 0.00 | 0.00 | 65 | 1016.8 |
| 20260510114553 | 44 | 271 | 0.0 | 0.9 | 0.00 | 0.00 | 0.00 | 68 | 1016.5 |
| 20260510113047 | 43 | 269 | 0.0 | 0.9 | 0.00 | 0.00 | 0.00 | 70 | 1016.3 |
| 20260510111551 | 42 | 276 | 0.0 | 0.9 | 0.00 | 0.00 | 0.00 | 78 | 1016.1 |
| 20260510110046 | 41 | 281 | 0.0 | 0.9 | 0.00 | 0.00 | 0.00 | 79 | 1016.0 |
| 20260510104546 | 40 | 331 | 0.0 | 0.9 | 0.00 | 0.00 | 0.00 | 78 | 1015.8 |
| 20260510103043 | 40 | 61 | 0.0 | 0.0 | 0.00 | 0.00 | 0.00 | 78 | 1015.5 |
| 20260510101538 | 41 | 61 | 0.0 | 0.0 | 0.00 | 0.00 | 0.00 | 77 | 1015.3 |
| 20260510100040 | 42 | 61 | 0.0 | 0.0 | 0.00 | 0.00 | 0.00 | 76 | 1015.1 |
| 20260510094542 | 42 | 61 | 0.0 | 0.0 | 0.00 | 0.00 | 0.00 | 74 | 1014.9 |
| 20260510093033 | 43 | 61 | 0.0 | 0.0 | 0.00 | 0.00 | 0.00 | 72 | 1014.8 |
| 20260510091534 | 43 | 61 | 0.0 | 0.0 | 0.00 | 0.00 | 0.00 | 72 | 1014.8 |
| 20260510090025 | 44 | 61 | 0.0 | 0.0 | 0.00 | 0.00 | 0.00 | 71 | 1014.5 |
| 20260510084521 | 44 | 61 | 0.0 | 0.0 | 0.00 | 0.00 | 0.00 | 70 | 1014.1 |
| 20260510083025 | 45 | 61 | 0.0 | 0.0 | 0.00 | 0.00 | 0.00 | 69 | 1013.7 |
| 20260510081515 | 46 | 61 | 0.0 | 0.0 | 0.00 | 0.00 | 0.00 | 68 | 1013.5 |
| 20260510080022 | 46 | 61 | 0.0 | 0.0 | 0.00 | 0.00 | 0.00 | 67 | 1013.2 |
| 20260510074508 | 47 | 61 | 0.0 | 0.0 | 0.00 | 0.00 | 0.00 | 65 | 1012.7 |
| 20260510073016 | 47 | 61 | 0.0 | 0.0 | 0.00 | 0.00 | 0.00 | 63 | 1012.4 |
| 20260510071505 | 48 | 61 | 0.0 | 0.9 | 0.00 | 0.00 | 0.00 | 63 | 1012.1 |
| 20260510070003 | 48 | 83 | 0.0 | 0.0 | 0.00 | 0.00 | 0.00 | 68 | 1012.0 |
| 20260510064502 | 47 | 83 | 0.0 | 0.9 | 0.00 | 0.00 | 0.00 | 69 | 1011.9 |
| 20260510063100 | 48 | 43 | 0.0 | 0.0 | 0.00 | 0.00 | 0.00 | 72 | 1011.9 |
| 20260510061600 | 48 | 43 | 0.0 | 0.0 | 0.00 | 0.00 | 0.00 | 69 | 1011.6 |
| 20260510060055 | 49 | 43 | 0.0 | 0.0 | 0.00 | 0.00 | 0.00 | 67 | 1011.4 |
| 20260510054550 | 50 | 43 | 0.0 | 0.0 | 0.00 | 0.00 | 0.00 | 67 | 1011.3 |
| 20260510053046 | 51 | 43 | 0.0 | 0.0 | 0.00 | 0.00 | 0.00 | 65 | 1011.0 |
| 20260510051547 | 52 | 43 | 0.0 | 0.0 | 0.00 | 0.00 | 0.00 | 65 | 1010.8 |
| 20260510050040 | 53 | 63 | 0.0 | 0.9 | 0.00 | 0.00 | 0.00 | 63 | 1010.5 |
| 20260510044539 | 53 | 63 | 0.0 | 0.0 | 0.00 | 0.00 | 0.00 | 61 | 1010.4 |
| 20260510043035 | 54 | 59 | 0.0 | 0.9 | 0.00 | 0.00 | 0.00 | 61 | 1009.9 |
| 20260510041531 | 54 | 58 | 0.0 | 0.0 | 0.00 | 0.00 | 0.00 | 61 | 1009.8 |
| 20260510040027 | 56 | 275 | 0.0 | 0.0 | 0.00 | 0.00 | 0.00 | 59 | 1009.5 |
| 20260510034525 | 57 | 274 | 0.0 | 0.9 | 0.00 | 0.00 | 0.00 | 55 | 1009.2 |
| 20260510033024 | 57 | 291 | 0.0 | 2.6 | 0.00 | 0.00 | 0.00 | 53 | 1009.0 |
| 20260510031523 | 58 | 267 | 0.0 | 2.6 | 0.00 | 0.00 | 0.00 | 52 | 1008.6 |
| 20260510030023 | 59 | 252 | 0.0 | 2.6 | 0.00 | 0.00 | 0.00 | 50 | 1008.5 |
| 20260510024520 | 59 | 274 | 0.0 | 2.6 | 0.00 | 0.00 | 0.00 | 48 | 1008.2 |
| 20260510023019 | 60 | 325 | 0.0 | 4.3 | 0.00 | 0.00 | 0.00 | 48 | 1008.1 |
| 20260510021520 | 61 | 293 | 0.0 | 4.3 | 0.00 | 0.00 | 0.00 | 50 | 1007.7 |
| 20260510020018 | 62 | 273 | 0.9 | 5.2 | 0.00 | 0.00 | 0.00 | 50 | 1006.9 |
| 20260510014517 | 61 | 262 | 0.0 | 2.6 | 0.00 | 0.00 | 0.00 | 53 | 1006.5 |
| 20260510013016 | 61 | 352 | 0.0 | 2.6 | 0.00 | 0.00 | 0.00 | 54 | 1006.1 |
| 20260510011517 | 61 | 276 | 0.0 | 1.7 | 0.00 | 0.00 | 0.00 | 53 | 1005.7 |
| 20260510010016 | 62 | 299 | 0.0 | 0.9 | 0.00 | 0.00 | 0.00 | 52 | 1005.4 |
| 20260510004514 | 63 | 272 | 0.0 | 0.0 | 0.00 | 0.00 | 0.00 | 49 | 1005.1 |
| 20260510003022 | 64 | 282 | 0.0 | 2.6 | 0.00 | 0.00 | 0.00 | 47 | 1004.9 |
| 20260510001513 | 65 | 280 | 0.0 | 2.6 | 0.00 | 0.00 | 0.00 | 46 | 1004.7 |
| 20260510000014 | 66 | 292 | 0.0 | 1.7 | 0.00 | 0.00 | 0.00 | 44 | 1004.5 |
| 20260509234523 | 67 | 277 | 0.9 | 3.5 | 0.00 | 0.00 | 0.00 | 43 | 1004.4 |
| 20260509233012 | 67 | 67 | 0.0 | 2.6 | 0.00 | 0.00 | 0.00 | 43 | 1004.3 |
| 20260509231514 | 67 | 287 | 0.9 | 5.2 | 0.00 | 0.00 | 0.00 | 41 | 1004.3 |